,,,PA_Meas_PMT16A,,PR_Meas_QMR101_102,,RH_Meas_QMH101,,SR_Meas_QMS101,,TA_Meas_QMH101,,GenWind,,GenWind,
date,time,status,PA,status,PR,status,RH,status,SR,status,TA,status,DirAvg,status,SpdAvg,
2011-02-17, 00:00:04,VALID,1004.31,VALID,0,INVALID,163.655,VALID,0,VALID,24.6185,VALID,354,VALID,0.417578,
2011-02-17, 00:01:04,VALID,1004.33,VALID,0,INVALID,163.662,VALID,0,VALID,24.6361,VALID,353,VALID,0.466406,
2011-02-17, 00:02:04,VALID,1004.32,VALID,0,INVALID,163.639,VALID,0,VALID,24.6574,VALID,351,VALID,0.177734,
2011-02-17, 00:03:04,VALID,1004.31,VALID,0,INVALID,163.67,VALID,0,VALID,24.6556,VALID,351,VALID,0.269141,
2011-02-17, 00:04:04,VALID,1004.32,VALID,0,INVALID,163.647,VALID,0,VALID,24.6556,VALID,351,VALID,0.289844,
2011-02-17, 00:05:04,VALID,1004.26,VALID,0,INVALID,163.632,VALID,0,VALID,24.675,VALID,351,VALID,0.177734,
2011-02-17, 00:06:04,VALID,1004.28,VALID,0,INVALID,163.647,VALID,0,VALID,24.6964,VALID,351,VALID,0,
2011-02-17, 00:07:04,VALID,1004.27,VALID,0,INVALID,163.655,VALID,0,VALID,24.675,VALID,351,VALID,0.0203125,
2011-02-17, 00:08:04,VALID,1004.28,VALID,0,INVALID,163.67,VALID,0,VALID,24.675,VALID,351,VALID,0.128516,
2011-02-17, 00:09:04,VALID,1004.26,VALID,0,INVALID,163.655,VALID,0,VALID,24.675,VALID,351,VALID,0,
2011-02-17, 00:10:04,VALID,1004.24,VALID,0,INVALID,163.639,VALID,0,VALID,24.675,VALID,351,VALID,0,
2011-02-17, 00:11:04,VALID,1004.24,VALID,0,INVALID,163.647,VALID,0,VALID,24.675,VALID,351,VALID,0,
2011-02-17, 00:12:04,VALID,1004.21,VALID,0,INVALID,163.647,VALID,0,VALID,24.675,VALID,348,VALID,0,
2011-02-17, 00:13:04,VALID,1004.19,VALID,0,INVALID,163.647,VALID,0,VALID,24.6556,VALID,346,VALID,0,
2011-02-17, 00:14:04,VALID,1004.15,VALID,0,INVALID,163.647,VALID,0,VALID,24.5953,VALID,346,VALID,0,
2011-02-17, 00:15:04,VALID,1004.16,VALID,0,INVALID,163.67,VALID,0,VALID,24.5972,VALID,346,VALID,0,
2011-02-17, 00:16:04,VALID,1004.13,VALID,0,INVALID,163.678,VALID,0,VALID,24.5972,VALID,346,VALID,0,
2011-02-17, 00:17:04,VALID,1004.1,VALID,0,INVALID,163.67,VALID,0,VALID,24.5777,VALID,346,VALID,0,
2011-02-17, 00:18:04,VALID,1004.08,VALID,0,INVALID,163.662,VALID,0,VALID,24.5582,VALID,346,VALID,0.285547,
2011-02-17, 00:19:04,VALID,1004.04,VALID,0,INVALID,163.685,VALID,0,VALID,24.5582,VALID,346,VALID,0.204297,
2011-02-17, 00:20:04,VALID,1004.04,VALID,0,INVALID,163.662,VALID,0,VALID,24.5388,VALID,346,VALID,0.0894531,
2011-02-17, 00:21:04,VALID,1004.02,VALID,0,INVALID,163.67,VALID,0,VALID,24.5193,VALID,346,VALID,0,
2011-02-17, 00:22:04,VALID,1003.98,VALID,0,INVALID,163.655,VALID,0,VALID,24.5388,VALID,346,VALID,0.0257812,
2011-02-17, 00:23:04,VALID,1004,VALID,0,INVALID,163.655,VALID,0,VALID,24.5406,VALID,346,VALID,0.0964844,
2011-02-17, 00:24:04,VALID,1003.98,VALID,0,INVALID,163.678,VALID,0,VALID,24.5193,VALID,346,VALID,0,
2011-02-17, 00:25:04,VALID,1003.95,VALID,0,INVALID,163.678,VALID,0,VALID,24.4998,VALID,346,VALID,0,
2011-02-17, 00:26:04,VALID,1003.98,VALID,0,INVALID,163.678,VALID,0,VALID,24.5193,VALID,346,VALID,0.0273438,
2011-02-17, 00:27:04,VALID,1003.97,VALID,0,INVALID,163.67,VALID,0,VALID,24.498,VALID,346,VALID,0.130859,
2011-02-17, 00:28:04,VALID,1003.93,VALID,0,INVALID,163.647,VALID,0,VALID,24.5388,VALID,346,VALID,0,
2011-02-17, 00:29:04,VALID,1003.95,VALID,0,INVALID,163.662,VALID,0,VALID,24.5796,VALID,346,VALID,0,
2011-02-17, 00:30:04,VALID,1003.93,VALID,0,INVALID,163.678,VALID,0,VALID,24.5582,VALID,346,VALID,0.370703,
2011-02-17, 00:31:04,VALID,1003.9,VALID,0,INVALID,163.632,VALID,0,VALID,24.5582,VALID,349,VALID,0.453125,
2011-02-17, 00:32:04,VALID,1003.89,VALID,0,INVALID,163.678,VALID,0,VALID,24.5777,VALID,1,VALID,0.59375,
2011-02-17, 00:33:04,VALID,1003.9,VALID,0,INVALID,163.655,VALID,0,VALID,24.5777,VALID,1,VALID,0.472266,
2011-02-17, 00:34:04,VALID,1003.86,VALID,0,INVALID,163.662,VALID,0,VALID,24.5777,VALID,1,VALID,0.365234,
2011-02-17, 00:35:04,VALID,1003.86,VALID,0,INVALID,163.678,VALID,0,VALID,24.5369,VALID,1,VALID,0.321484,
2011-02-17, 00:36:04,VALID,1003.82,VALID,0,INVALID,163.662,VALID,0,VALID,24.5777,VALID,1,VALID,0.209766,
2011-02-17, 00:37:04,VALID,1003.84,VALID,0,INVALID,163.67,VALID,0,VALID,24.5777,VALID,1,VALID,0.319531,
2011-02-17, 00:38:04,VALID,1003.82,VALID,0,INVALID,163.662,VALID,0,VALID,24.599,VALID,1,VALID,0.357031,
2011-02-17, 00:39:04,VALID,1003.82,VALID,0,INVALID,163.662,VALID,0,VALID,24.599,VALID,1,VALID,0.345313,
2011-02-17, 00:40:04,VALID,1003.84,VALID,0,INVALID,163.678,VALID,0,VALID,24.5582,VALID,1,VALID,0.288672,
2011-02-17, 00:41:04,VALID,1003.84,VALID,0,INVALID,163.647,VALID,0,VALID,24.5777,VALID,1,VALID,0.321875,
2011-02-17, 00:42:04,VALID,1003.82,VALID,0,INVALID,163.662,VALID,0,VALID,24.5388,VALID,1,VALID,0.367969,
2011-02-17, 00:43:04,VALID,1003.84,VALID,0,INVALID,163.685,VALID,0,VALID,24.5582,VALID,1,VALID,0.458984,
2011-02-17, 00:44:04,VALID,1003.84,VALID,0,INVALID,163.67,VALID,0,VALID,24.5388,VALID,1,VALID,0.544141,
2011-02-17, 00:45:04,VALID,1003.86,VALID,0,INVALID,163.67,VALID,0,VALID,24.5388,VALID,2,VALID,0.609375,
2011-02-17, 00:46:04,VALID,1003.85,VALID,0,INVALID,163.647,VALID,0,VALID,24.5406,VALID,4,VALID,0.55625,
2011-02-17, 00:47:04,VALID,1003.84,VALID,0,INVALID,163.678,VALID,0,VALID,24.5601,VALID,20,VALID,0.626562,
2011-02-17, 00:48:04,VALID,1003.84,VALID,0,INVALID,163.67,VALID,0,VALID,24.5601,VALID,20,VALID,0.598437,
2011-02-17, 00:49:04,VALID,1003.85,VALID,0,INVALID,163.67,VALID,0,VALID,24.5193,VALID,20,VALID,0.514063,
2011-02-17, 00:50:04,VALID,1003.83,VALID,0,INVALID,163.685,VALID,0,VALID,24.5212,VALID,20,VALID,0.55625,
2011-02-17, 00:51:04,VALID,1003.82,VALID,0,INVALID,163.662,VALID,0,VALID,24.5017,VALID,20,VALID,0.45,
2011-02-17, 00:52:04,VALID,1003.85,VALID,0,INVALID,163.662,VALID,0,VALID,24.4804,VALID,20,VALID,0.521484,
2011-02-17, 00:53:04,VALID,1003.82,VALID,0,INVALID,163.662,VALID,0,VALID,24.4804,VALID,20,VALID,0.383203,
2011-02-17, 00:54:04,VALID,1003.81,VALID,0,INVALID,163.678,VALID,0,VALID,24.4998,VALID,20,VALID,0.441797,
2011-02-17, 00:55:04,VALID,1003.82,VALID,0,INVALID,163.678,VALID,0,VALID,24.4998,VALID,20,VALID,0.369141,
2011-02-17, 00:56:04,VALID,1003.81,VALID,0,INVALID,163.67,VALID,0,VALID,24.4822,VALID,20,VALID,0.319141,
2011-02-17, 00:57:04,VALID,1003.81,VALID,0,INVALID,163.67,VALID,0,VALID,24.4609,VALID,20,VALID,0.484766,
2011-02-17, 00:58:04,VALID,1003.8,VALID,0,INVALID,163.701,VALID,0,VALID,24.4414,VALID,20,VALID,0.380859,
2011-02-17, 00:59:04,VALID,1003.8,VALID,0,INVALID,163.655,VALID,0,VALID,24.4433,VALID,20,VALID,0.261719,
2011-02-17, 01:00:04,VALID,1003.86,VALID,0,INVALID,163.67,VALID,0,VALID,24.422,VALID,20,VALID,0.367188,
2011-02-17, 01:01:04,VALID,1003.84,VALID,0,INVALID,163.678,VALID,0,VALID,24.383,VALID,20,VALID,0.233203,
2011-02-17, 01:02:04,VALID,1003.83,VALID,0,INVALID,163.678,VALID,0,VALID,24.3636,VALID,20,VALID,0.311328,
2011-02-17, 01:03:04,VALID,1003.83,VALID,0,INVALID,163.685,VALID,0,VALID,24.383,VALID,20,VALID,0.265625,
2011-02-17, 01:04:04,VALID,1003.84,VALID,0,INVALID,163.693,VALID,0,VALID,24.3636,VALID,20,VALID,0.314063,
2011-02-17, 01:05:04,VALID,1003.85,VALID,0,INVALID,163.685,VALID,0,VALID,24.3654,VALID,20,VALID,0.375781,
2011-02-17, 01:06:04,VALID,1003.86,VALID,0,INVALID,163.678,VALID,0,VALID,24.3441,VALID,20,VALID,0.448047,
2011-02-17, 01:07:04,VALID,1003.85,VALID,0,INVALID,163.655,VALID,0,VALID,24.3459,VALID,20,VALID,0.435937,
2011-02-17, 01:08:04,VALID,1003.83,VALID,0,INVALID,163.662,VALID,0,VALID,24.3441,VALID,20,VALID,0.405859,
2011-02-17, 01:09:04,VALID,1003.83,VALID,0,INVALID,163.685,VALID,0,VALID,24.3459,VALID,20,VALID,0.359766,
2011-02-17, 01:10:04,VALID,1003.81,VALID,0,INVALID,163.693,VALID,0,VALID,24.3265,VALID,20,VALID,0.313672,
2011-02-17, 01:11:04,VALID,1003.8,VALID,0,INVALID,163.678,VALID,0,VALID,24.3265,VALID,20,VALID,0.40625,
2011-02-17, 01:12:04,VALID,1003.8,VALID,0,INVALID,163.693,VALID,0,VALID,24.3265,VALID,20,VALID,0.2875,
2011-02-17, 01:13:04,VALID,1003.85,VALID,0,INVALID,163.662,VALID,0,VALID,24.2857,VALID,20,VALID,0.291797,
2011-02-17, 01:14:04,VALID,1003.88,VALID,0,INVALID,163.685,VALID,0,VALID,24.2662,VALID,20,VALID,0.271094,
2011-02-17, 01:15:04,VALID,1003.86,VALID,0,INVALID,163.685,VALID,0,VALID,24.2681,VALID,20,VALID,0.211719,
2011-02-17, 01:16:04,VALID,1003.83,VALID,0,INVALID,163.701,VALID,0,VALID,24.2857,VALID,20,VALID,0.408984,
2011-02-17, 01:17:04,VALID,1003.82,VALID,0,INVALID,163.678,VALID,0,VALID,24.2857,VALID,19,VALID,0.530469,
2011-02-17, 01:18:04,VALID,1003.82,VALID,0,INVALID,163.708,VALID,0,VALID,24.2857,VALID,7,VALID,0.649219,
2011-02-17, 01:19:04,VALID,1003.8,VALID,0,INVALID,163.685,VALID,0,VALID,24.307,VALID,7,VALID,0.655078,
2011-02-17, 01:20:04,VALID,1003.8,VALID,0,INVALID,163.708,VALID,0,VALID,24.2875,VALID,7,VALID,0.474609,
2011-02-17, 01:21:04,VALID,1003.78,VALID,0,INVALID,163.693,VALID,0,VALID,24.3265,VALID,7,VALID,0.551953,
2011-02-17, 01:22:04,VALID,1003.8,VALID,0,INVALID,163.678,VALID,0,VALID,24.3052,VALID,7,VALID,0.491797,
2011-02-17, 01:23:04,VALID,1003.75,VALID,0,INVALID,163.693,VALID,0,VALID,24.2662,VALID,7,VALID,0.428906,
2011-02-17, 01:24:04,VALID,1003.71,VALID,0,INVALID,163.693,VALID,0,VALID,24.2857,VALID,7,VALID,0.289453,
2011-02-17, 01:25:04,VALID,1003.66,VALID,0,INVALID,163.678,VALID,0,VALID,24.2857,VALID,7,VALID,0.395703,
2011-02-17, 01:26:04,VALID,1003.65,VALID,0,INVALID,163.67,VALID,0,VALID,24.2857,VALID,7,VALID,0.332031,
2011-02-17, 01:27:04,VALID,1003.64,VALID,0,INVALID,163.685,VALID,0,VALID,24.2662,VALID,7,VALID,0.589063,
2011-02-17, 01:28:04,VALID,1003.61,VALID,0,INVALID,163.685,VALID,0,VALID,24.2449,VALID,7,VALID,0.443359,
2011-02-17, 01:29:04,VALID,1003.58,VALID,0,INVALID,163.701,VALID,0,VALID,24.2662,VALID,7,VALID,0.539844,
2011-02-17, 01:30:04,VALID,1003.54,VALID,0,INVALID,163.678,VALID,0,VALID,24.2468,VALID,7,VALID,0.55,
2011-02-17, 01:31:04,VALID,1003.54,VALID,0,INVALID,163.662,VALID,0,VALID,24.2857,VALID,7,VALID,0.458203,
2011-02-17, 01:32:04,VALID,1003.52,VALID,0,INVALID,163.662,VALID,0,VALID,24.2662,VALID,7,VALID,0.335547,
2011-02-17, 01:33:04,VALID,1003.51,VALID,0,INVALID,163.708,VALID,0,VALID,24.2875,VALID,7,VALID,0.409766,
2011-02-17, 01:34:04,VALID,1003.5,VALID,0,INVALID,163.693,VALID,0,VALID,24.2486,VALID,7,VALID,0.335547,
2011-02-17, 01:35:04,VALID,1003.52,VALID,0,INVALID,163.647,VALID,0,VALID,24.2273,VALID,7,VALID,0.332422,
2011-02-17, 01:36:04,VALID,1003.51,VALID,0,INVALID,163.693,VALID,0,VALID,24.2273,VALID,7,VALID,0.387891,
2011-02-17, 01:37:04,VALID,1003.54,VALID,0,INVALID,163.655,VALID,0,VALID,24.2291,VALID,7,VALID,0.446875,
2011-02-17, 01:38:04,VALID,1003.52,VALID,0,INVALID,163.701,VALID,0,VALID,24.2486,VALID,7,VALID,0.498437,
2011-02-17, 01:39:04,VALID,1003.53,VALID,0,INVALID,163.708,VALID,0,VALID,24.2078,VALID,7,VALID,0.354297,
2011-02-17, 01:40:04,VALID,1003.52,VALID,0,INVALID,163.662,VALID,0,VALID,24.2291,VALID,7,VALID,0.59375,
2011-02-17, 01:41:04,VALID,1003.53,VALID,0,INVALID,163.716,VALID,0,VALID,24.2078,VALID,6,VALID,0.459766,
2011-02-17, 01:42:04,VALID,1003.5,VALID,0,INVALID,163.701,VALID,0,VALID,24.2078,VALID,6,VALID,0.372266,
2011-02-17, 01:43:04,VALID,1003.49,VALID,0,INVALID,163.693,VALID,0,VALID,24.2078,VALID,6,VALID,0.407031,
2011-02-17, 01:44:04,VALID,1003.47,VALID,0,INVALID,163.678,VALID,0,VALID,24.2486,VALID,6,VALID,0.474609,
2011-02-17, 01:45:04,VALID,1003.49,VALID,0,INVALID,163.685,VALID,0,VALID,24.2486,VALID,6,VALID,0.250391,
2011-02-17, 01:46:04,VALID,1003.45,VALID,0,INVALID,163.693,VALID,0,VALID,24.2681,VALID,6,VALID,0.243359,
2011-02-17, 01:47:04,VALID,1003.47,VALID,0,INVALID,163.685,VALID,0,VALID,24.2468,VALID,6,VALID,0.189063,
2011-02-17, 01:48:04,VALID,1003.45,VALID,0,INVALID,163.67,VALID,0,VALID,24.2273,VALID,6,VALID,0.159375,
2011-02-17, 01:49:04,VALID,1003.45,VALID,0,INVALID,163.708,VALID,0,VALID,24.2273,VALID,6,VALID,0.219141,
2011-02-17, 01:50:04,VALID,1003.45,VALID,0,INVALID,163.708,VALID,0,VALID,24.2078,VALID,6,VALID,0.320703,
2011-02-17, 01:51:04,VALID,1003.45,VALID,0,INVALID,163.67,VALID,0,VALID,24.2291,VALID,6,VALID,0.365625,
2011-02-17, 01:52:04,VALID,1003.44,VALID,0,INVALID,163.67,VALID,0,VALID,24.2291,VALID,6,VALID,0.304688,
2011-02-17, 01:53:04,VALID,1003.45,VALID,0,INVALID,163.685,VALID,0,VALID,24.2097,VALID,6,VALID,0.280859,
2011-02-17, 01:54:04,VALID,1003.46,VALID,0,INVALID,163.693,VALID,0,VALID,24.1884,VALID,6,VALID,0.272266,
2011-02-17, 01:55:04,VALID,1003.42,VALID,0,INVALID,163.678,VALID,0,VALID,24.1884,VALID,6,VALID,0.328906,
2011-02-17, 01:56:04,VALID,1003.43,VALID,0,INVALID,163.678,VALID,0,VALID,24.1671,VALID,6,VALID,0.275,
2011-02-17, 01:57:04,VALID,1003.42,VALID,0,INVALID,163.678,VALID,0,VALID,24.1902,VALID,6,VALID,0.191406,
2011-02-17, 01:58:04,VALID,1003.41,VALID,0,INVALID,163.685,VALID,0,VALID,24.1884,VALID,6,VALID,0.335156,
2011-02-17, 01:59:04,VALID,1003.38,VALID,0,INVALID,163.693,VALID,0,VALID,24.1884,VALID,6,VALID,0.236328,
2011-02-17, 02:00:04,VALID,1003.39,VALID,0,INVALID,163.678,VALID,0.100563,VALID,24.1494,VALID,6,VALID,0.453125,
2011-02-17, 02:01:04,VALID,1003.41,VALID,0,INVALID,163.693,VALID,0,VALID,24.1494,VALID,6,VALID,0.412891,
2011-02-17, 02:02:04,VALID,1003.38,VALID,0,INVALID,163.708,VALID,0,VALID,24.13,VALID,6,VALID,0.398828,
2011-02-17, 02:03:04,VALID,1003.36,VALID,0,INVALID,163.693,VALID,0,VALID,24.0892,VALID,6,VALID,0.376563,
2011-02-17, 02:04:04,VALID,1003.35,VALID,0,INVALID,163.716,VALID,0,VALID,24.091,VALID,5,VALID,0.614453,
2011-02-17, 02:05:04,VALID,1003.34,VALID,0,INVALID,163.701,VALID,0,VALID,24.0716,VALID,5,VALID,0.351953,
2011-02-17, 02:06:04,VALID,1003.33,VALID,0,INVALID,163.685,VALID,0,VALID,24.0734,VALID,5,VALID,0.431641,
2011-02-17, 02:07:04,VALID,1003.33,VALID,0,INVALID,163.693,VALID,0,VALID,24.0326,VALID,5,VALID,0.446094,
2011-02-17, 02:08:04,VALID,1003.33,VALID,0,INVALID,163.701,VALID,0,VALID,24.0326,VALID,5,VALID,0.401172,
2011-02-17, 02:09:04,VALID,1003.34,VALID,0,INVALID,163.685,VALID,0,VALID,23.9937,VALID,5,VALID,0.375781,
2011-02-17, 02:10:04,VALID,1003.32,VALID,0,INVALID,163.678,VALID,0,VALID,24.0132,VALID,5,VALID,0.3375,
2011-02-17, 02:11:04,VALID,1003.32,VALID,0,INVALID,163.716,VALID,0,VALID,23.9937,VALID,5,VALID,0.459766,
2011-02-17, 02:12:04,VALID,1003.33,VALID,0,INVALID,163.708,VALID,0,VALID,24.0326,VALID,5,VALID,0.486719,
2011-02-17, 02:13:04,VALID,1003.35,VALID,0,INVALID,163.693,VALID,0,VALID,24.0521,VALID,5,VALID,0.514844,
2011-02-17, 02:14:04,VALID,1003.36,VALID,0,INVALID,163.701,VALID,0,VALID,24.0521,VALID,5,VALID,0.449219,
2011-02-17, 02:15:04,VALID,1003.32,VALID,0,INVALID,163.723,VALID,0,VALID,24.0326,VALID,5,VALID,0.60625,
2011-02-17, 02:16:04,VALID,1003.32,VALID,0,INVALID,163.708,VALID,0,VALID,24.0716,VALID,5,VALID,0.625781,
2011-02-17, 02:17:04,VALID,1003.3,VALID,0,INVALID,163.701,VALID,0,VALID,24.0716,VALID,4,VALID,0.716406,
2011-02-17, 02:18:04,VALID,1003.27,VALID,0,INVALID,163.716,VALID,0,VALID,24.1123,VALID,1,VALID,0.736328,
2011-02-17, 02:19:04,VALID,1003.24,VALID,0,INVALID,163.685,VALID,0,VALID,24.1123,VALID,1,VALID,0.683203,
2011-02-17, 02:20:04,VALID,1003.22,VALID,0,INVALID,163.708,VALID,0.100563,VALID,24.0697,VALID,1,VALID,0.75,
2011-02-17, 02:21:04,VALID,1003.19,VALID,0,INVALID,163.701,VALID,0,VALID,24.091,VALID,1,VALID,0.711328,
2011-02-17, 02:22:04,VALID,1003.18,VALID,0,INVALID,163.678,VALID,0,VALID,24.0521,VALID,1,VALID,0.746094,
2011-02-17, 02:23:04,VALID,1003.19,VALID,0,INVALID,163.678,VALID,0,VALID,24.0521,VALID,1,VALID,0.633984,
2011-02-17, 02:24:04,VALID,1003.15,VALID,0,INVALID,163.693,VALID,0.100563,VALID,24.091,VALID,1,VALID,0.683203,
2011-02-17, 02:25:04,VALID,1003.13,VALID,0,INVALID,163.701,VALID,0,VALID,24.091,VALID,1,VALID,0.613281,
2011-02-17, 02:26:04,VALID,1003.11,VALID,0,INVALID,163.693,VALID,0,VALID,24.091,VALID,360,VALID,0.506641,
2011-02-17, 02:27:04,VALID,1003.1,VALID,0,INVALID,163.67,VALID,0,VALID,24.091,VALID,360,VALID,0.483984,
2011-02-17, 02:28:04,VALID,1003.11,VALID,0,INVALID,163.701,VALID,0,VALID,24.1318,VALID,360,VALID,0.5625,
2011-02-17, 02:29:04,VALID,1003.1,VALID,0,INVALID,163.67,VALID,0.100563,VALID,24.0697,VALID,360,VALID,0.534375,
2011-02-17, 02:30:04,VALID,1003.09,VALID,0,INVALID,163.716,VALID,0,VALID,24.1318,VALID,360,VALID,0.497656,
2011-02-17, 02:31:04,VALID,1003.09,VALID,0,INVALID,163.701,VALID,0,VALID,24.1105,VALID,360,VALID,0.475391,
2011-02-17, 02:32:04,VALID,1003.09,VALID,0,INVALID,163.693,VALID,0,VALID,24.1105,VALID,360,VALID,0.740625,
2011-02-17, 02:33:04,VALID,1003.06,VALID,0,INVALID,163.693,VALID,0,VALID,24.1105,VALID,2,VALID,0.571875,
2011-02-17, 02:34:04,VALID,1003.07,VALID,0,INVALID,163.693,VALID,0,VALID,24.13,VALID,2,VALID,0.482422,
2011-02-17, 02:35:04,VALID,1003.07,VALID,0,INVALID,163.701,VALID,0,VALID,24.0892,VALID,2,VALID,0.460156,
2011-02-17, 02:36:04,VALID,1003.07,VALID,0,INVALID,163.708,VALID,0.100563,VALID,24.13,VALID,2,VALID,0.514063,
2011-02-17, 02:37:04,VALID,1003.06,VALID,0,INVALID,163.693,VALID,0,VALID,24.1105,VALID,2,VALID,0.529297,
2011-02-17, 02:38:04,VALID,1003.09,VALID,0,INVALID,163.701,VALID,0,VALID,24.0892,VALID,2,VALID,0.493359,
2011-02-17, 02:39:04,VALID,1003.12,VALID,0,INVALID,163.67,VALID,0,VALID,24.1105,VALID,2,VALID,0.378906,
2011-02-17, 02:40:04,VALID,1003.12,VALID,0,INVALID,163.678,VALID,0,VALID,24.091,VALID,2,VALID,0.558594,
2011-02-17, 02:41:04,VALID,1003.15,VALID,0,INVALID,163.708,VALID,0,VALID,24.091,VALID,2,VALID,0.558203,
2011-02-17, 02:42:04,VALID,1003.13,VALID,0,INVALID,163.701,VALID,0,VALID,24.091,VALID,2,VALID,0.569922,
2011-02-17, 02:43:04,VALID,1003.17,VALID,0,INVALID,163.716,VALID,0,VALID,24.0716,VALID,2,VALID,0.626953,
2011-02-17, 02:44:04,VALID,1003.2,VALID,0,INVALID,163.67,VALID,0,VALID,24.0716,VALID,2,VALID,0.650781,
2011-02-17, 02:45:04,VALID,1003.17,VALID,0,INVALID,163.685,VALID,0.100563,VALID,24.0716,VALID,2,VALID,0.679688,
2011-02-17, 02:46:04,VALID,1003.16,VALID,0,INVALID,163.716,VALID,0,VALID,24.0716,VALID,2,VALID,0.694531,
2011-02-17, 02:47:04,VALID,1003.17,VALID,0,INVALID,163.716,VALID,0,VALID,24.091,VALID,2,VALID,0.684375,
2011-02-17, 02:48:04,VALID,1003.14,VALID,0,INVALID,163.678,VALID,0,VALID,24.0716,VALID,2,VALID,0.622656,
2011-02-17, 02:49:04,VALID,1003.14,VALID,0,INVALID,163.685,VALID,0.100563,VALID,24.0716,VALID,2,VALID,0.566406,
2011-02-17, 02:50:04,VALID,1003.11,VALID,0,INVALID,163.701,VALID,0,VALID,24.0929,VALID,2,VALID,0.689453,
2011-02-17, 02:51:04,VALID,1003.07,VALID,0,INVALID,163.708,VALID,0,VALID,24.0503,VALID,2,VALID,0.736719,
2011-02-17, 02:52:04,VALID,1003.08,VALID,0,INVALID,163.685,VALID,0.100563,VALID,24.091,VALID,358,VALID,0.686719,
2011-02-17, 02:53:04,VALID,1003.04,VALID,0,INVALID,163.701,VALID,0,VALID,24.0716,VALID,358,VALID,0.632422,
2011-02-17, 02:54:04,VALID,1003.02,VALID,0,INVALID,163.701,VALID,0,VALID,24.0716,VALID,358,VALID,0.630859,
2011-02-17, 02:55:04,VALID,1003.01,VALID,0,INVALID,163.716,VALID,0.100563,VALID,24.0697,VALID,352,VALID,0.629297,
2011-02-17, 02:56:04,VALID,1003.02,VALID,0,INVALID,163.701,VALID,0,VALID,24.0716,VALID,352,VALID,0.531641,
2011-02-17, 02:57:04,VALID,1003.02,VALID,0,INVALID,163.701,VALID,0,VALID,24.0308,VALID,351,VALID,0.601563,
2011-02-17, 02:58:04,VALID,1003.02,VALID,0,INVALID,163.701,VALID,0,VALID,24.0308,VALID,350,VALID,0.503516,
2011-02-17, 02:59:04,VALID,1002.99,VALID,0,INVALID,163.693,VALID,0,VALID,24.0326,VALID,345,VALID,0.414844,
2011-02-17, 03:00:04,VALID,1003.02,VALID,0,INVALID,163.685,VALID,0,VALID,24.0326,VALID,345,VALID,0.432813,
2011-02-17, 03:01:04,VALID,1003.02,VALID,0,INVALID,163.708,VALID,0,VALID,24.0521,VALID,345,VALID,0.453516,
2011-02-17, 03:02:04,VALID,1003,VALID,0,INVALID,163.701,VALID,0,VALID,24.0521,VALID,345,VALID,0.564453,
2011-02-17, 03:03:04,VALID,1002.98,VALID,0,INVALID,163.685,VALID,0,VALID,24.0132,VALID,345,VALID,0.540234,
2011-02-17, 03:04:04,VALID,1002.96,VALID,0,INVALID,163.685,VALID,0,VALID,24.0132,VALID,345,VALID,0.460156,
2011-02-17, 03:05:04,VALID,1002.97,VALID,0,INVALID,163.701,VALID,0,VALID,24.0132,VALID,349,VALID,0.628906,
2011-02-17, 03:06:04,VALID,1002.96,VALID,0,INVALID,163.685,VALID,0,VALID,24.0132,VALID,352,VALID,0.783984,
2011-02-17, 03:07:04,VALID,1002.94,VALID,0,INVALID,163.701,VALID,0,VALID,23.9919,VALID,356,VALID,0.644141,
2011-02-17, 03:08:04,VALID,1002.93,VALID,0,INVALID,163.731,VALID,0,VALID,24.0132,VALID,356,VALID,0.6125,
2011-02-17, 03:09:04,VALID,1002.92,VALID,0,INVALID,163.678,VALID,0,VALID,24.0326,VALID,359,VALID,0.991016,
2011-02-17, 03:10:04,VALID,1002.88,VALID,0,INVALID,163.716,VALID,0,VALID,24.0521,VALID,2,VALID,0.828516,
2011-02-17, 03:11:04,VALID,1002.86,VALID,0,INVALID,163.693,VALID,0,VALID,24.0521,VALID,2,VALID,0.909375,
2011-02-17, 03:12:04,VALID,1002.87,VALID,0,INVALID,163.708,VALID,0,VALID,24.0326,VALID,1,VALID,0.700781,
2011-02-17, 03:13:04,VALID,1002.84,VALID,0,INVALID,163.708,VALID,0,VALID,24.0326,VALID,1,VALID,0.630078,
2011-02-17, 03:14:04,VALID,1002.84,VALID,0,INVALID,163.708,VALID,0,VALID,24.0326,VALID,1,VALID,0.626562,
2011-02-17, 03:15:04,VALID,1002.85,VALID,0,INVALID,163.693,VALID,0,VALID,24.0326,VALID,1,VALID,0.562109,
2011-02-17, 03:16:04,VALID,1002.86,VALID,0,INVALID,163.708,VALID,0.100563,VALID,23.9919,VALID,1,VALID,0.634766,
2011-02-17, 03:17:04,VALID,1002.81,VALID,0,INVALID,163.708,VALID,0,VALID,24.0326,VALID,360,VALID,0.515625,
2011-02-17, 03:18:04,VALID,1002.82,VALID,0,INVALID,163.693,VALID,0,VALID,23.9919,VALID,360,VALID,0.494922,
2011-02-17, 03:19:04,VALID,1002.81,VALID,0,INVALID,163.716,VALID,0,VALID,23.9724,VALID,353,VALID,0.594531,
2011-02-17, 03:20:04,VALID,1002.86,VALID,0,INVALID,163.716,VALID,0,VALID,24.0326,VALID,352,VALID,0.316016,
2011-02-17, 03:21:04,VALID,1002.92,VALID,0,INVALID,163.701,VALID,0,VALID,24.0521,VALID,288,VALID,1.08164,
2011-02-17, 03:22:04,VALID,1002.99,VALID,0,INVALID,163.655,VALID,0.100563,VALID,24.1105,VALID,270,VALID,1.57148,
2011-02-17, 03:23:04,VALID,1003.01,VALID,0,INVALID,163.67,VALID,0,VALID,24.1494,VALID,311,VALID,1.42539,
2011-02-17, 03:24:04,VALID,1003.03,VALID,0,INVALID,163.67,VALID,0,VALID,24.2662,VALID,274,VALID,0.689453,
2011-02-17, 03:25:04,VALID,1003.05,VALID,0,INVALID,163.67,VALID,0,VALID,24.3441,VALID,250,VALID,0.692969,
2011-02-17, 03:26:04,VALID,1003.04,VALID,0,INVALID,163.701,VALID,0,VALID,24.4414,VALID,349,VALID,0.913281,
2011-02-17, 03:27:04,VALID,1003.08,VALID,0,INVALID,163.67,VALID,0,VALID,24.5193,VALID,266,VALID,0.376953,
2011-02-17, 03:28:04,VALID,1003.13,VALID,0,INVALID,163.655,VALID,0.100563,VALID,24.5582,VALID,295,VALID,0.838672,
2011-02-17, 03:29:04,VALID,1003.12,VALID,0,INVALID,163.662,VALID,0,VALID,24.6166,VALID,294,VALID,0.7875,
2011-02-17, 03:30:04,VALID,1003.1,VALID,0,INVALID,163.639,VALID,0,VALID,24.6945,VALID,11,VALID,0.358203,
2011-02-17, 03:31:04,VALID,1003.1,VALID,0,INVALID,163.647,VALID,0,VALID,24.7529,VALID,263,VALID,1.26094,
2011-02-17, 03:32:04,VALID,1003.1,VALID,0,INVALID,163.617,VALID,0.100563,VALID,24.79,VALID,331,VALID,0.901953,
2011-02-17, 03:33:04,VALID,1003.11,VALID,0,INVALID,163.632,VALID,0,VALID,24.9282,VALID,287,VALID,0.641406,
2011-02-17, 03:34:04,VALID,1003.11,VALID,0,INVALID,163.617,VALID,0,VALID,25.006,VALID,301,VALID,1.51055,
2011-02-17, 03:35:04,VALID,1003.11,VALID,0,INVALID,163.632,VALID,0,VALID,25.0839,VALID,335,VALID,0.630078,
2011-02-17, 03:36:04,VALID,1003.09,VALID,0,INVALID,163.601,VALID,0,VALID,25.1423,VALID,27,VALID,0.786719,
2011-02-17, 03:37:04,VALID,1003.14,VALID,0,INVALID,163.609,VALID,0,VALID,25.1813,VALID,317,VALID,1.01445,
2011-02-17, 03:38:04,VALID,1003.14,VALID,0,INVALID,163.617,VALID,0,VALID,25.2397,VALID,291,VALID,0.878906,
2011-02-17, 03:39:04,VALID,1003.12,VALID,0,INVALID,163.609,VALID,0,VALID,25.2786,VALID,256,VALID,1.37383,
2011-02-17, 03:40:04,VALID,1003.18,VALID,0,INVALID,163.571,VALID,0,VALID,25.3157,VALID,329,VALID,1.29727,
2011-02-17, 03:41:04,VALID,1003.15,VALID,0,INVALID,163.617,VALID,0,VALID,25.3955,VALID,262,VALID,0.870703,
2011-02-17, 03:42:04,VALID,1003.15,VALID,0,INVALID,163.624,VALID,0,VALID,25.4344,VALID,328,VALID,1.25508,